Flag for Tajikistan Weather past 2 weeks in Dushanbe, Tajikistan

Now
79 °F

Clear.


Feels Like: 79 °F
Forecast: 71 / 94 °F
Wind: 1 mph from North

Location: Dushanbe Airport

Current Time: Aug 5, 2015 at 1:11:59 AM

Latest Report: Aug 5, 2015 at 12:00 AM


Visibility: N/A

Pressure: 29.71 "Hg (27.02 "Hg at 832m altitude)

Humidity: 42%

Dew point: 54 °F

Location of DushanbeLocation

Historic Weather in Dushanbe — Graph

°F

Dushanbe temperature yesterday

Maximum temperature yesterday: 102 °F (at 3:30 PM)
Minimum temperature yesterday: 72 °F (at 5:00 AM)
Average temperature yesterday: 87 °F

Past Weeks' High & Low Weather Summary

 TemperatureHumidityPressure
High102 °F (Aug 4, 3:30 PM)78% (Aug 2, 5:30 AM)29.95 "Hg (Aug 2, 5:30 AM)
Low64 °F (Aug 2, 5:30 AM)16% (Aug 3, 5:30 PM)29.56 "Hg (Jul 27, 3:30 PM)
Average83 °F42%29.77 "Hg
* Reported Midnight between Jul 20 and Jul 21 — Midnight between Aug 4 and Aug 5, Dushanbe, Weather by CustomWeather, © 2015

Note: Actual official high and low records may vary slightly from our data, if they occured in-between our weather recording intervals... More about our weather records

Advertising

Dushanbe weather history for previous 24 hours

 ConditionsComfort  
Time TempWeatherWind HumidityBarometerVisibility
12:00 AM
Wed, Aug 5
79 °FClear.1 mph42%29.71 "HgN/A
11:30 PM
Tue, Aug 4
79 °FClear.3 mph42%29.71 "HgN/A
11:00 PM77 °FClear.3 mph47%29.71 "HgN/A
10:30 PM82 °FClear.3 mph35%29.71 "HgN/A
10:00 PM82 °FClear.3 mph37%29.71 "HgN/A
9:30 PM84 °FClear.3 mph35%29.71 "HgN/A
9:00 PM84 °FClear.3 mph37%29.71 "HgN/A
8:30 PM88 °FClear.3 mph31%29.71 "HgN/A
8:00 PM90 °FClear.6 mph27%29.68 "HgN/A
7:30 PM90 °FClear.6 mph27%29.68 "HgN/A
7:00 PM91 °FClear.6 mph30%29.68 "HgN/A
6:30 PM95 °FClear.3 mph26%29.68 "HgN/A
6:00 PM99 °FClear.6 mph19%29.68 "HgN/A
5:30 PM100 °FPassing clouds.1 mph17%29.68 "HgN/A
5:00 PM100 °FPassing clouds.1 mph16%29.68 "HgN/A
4:30 PM100 °FPassing clouds.3 mph16%29.68 "HgN/A
4:00 PM100 °FPassing clouds.3 mph18%29.68 "HgN/A
3:30 PM102 °FPassing clouds.1 mph17%29.71 "HgN/A
3:00 PM100 °FPassing clouds.3 mph17%29.71 "HgN/A
2:30 PM100 °FPassing clouds.3 mph17%29.71 "HgN/A
2:00 PM100 °FPassing clouds.6 mph17%29.74 "HgN/A
1:30 PM100 °FPassing clouds.3 mph17%29.74 "HgN/A
1:00 PM99 °FPassing clouds.6 mph18%29.74 "HgN/A
12:30 PM99 °FPassing clouds.3 mph19%29.77 "HgN/A
12:00 PM99 °FPassing clouds.1 mph16%29.77 "HgN/A
11:30 AM97 °FPassing clouds.3 mph22%29.77 "HgN/A
11:00 AM97 °FPassing clouds.3 mph20%29.77 "HgN/A
10:30 AM93 °FClear.1 mph26%29.77 "HgN/A
10:00 AM91 °FClear.3 mph30%29.77 "HgN/A
9:30 AM90 °FClear.1 mph27%29.80 "HgN/A
9:00 AM86 °FClear.3 mph35%29.80 "HgN/A
8:00 AM81 °FClear.3 mph39%29.80 "HgN/A
7:30 AM79 °FClear.3 mph39%29.80 "HgN/A
7:00 AM81 °FClear.No wind37%29.80 "HgN/A
6:30 AM73 °FClear.1 mph53%29.77 "HgN/A
6:00 AM73 °FClear.1 mph50%29.77 "HgN/A
5:30 AM72 °FClear.1 mph50%29.77 "Hg6 mi
5:00 AM72 °FClear.1 mph50%29.77 "HgN/A
4:30 AM73 °FClear.3 mph47%29.77 "HgN/A
4:00 AM73 °FClear.3 mph47%29.77 "HgN/A
3:30 AM73 °FClear.1 mph47%29.77 "HgN/A
3:00 AM73 °FClear.1 mph50%29.77 "HgN/A
2:30 AM75 °FClear.1 mph50%29.77 "HgN/A
2:00 AM77 °FClear.3 mph47%29.77 "HgN/A
1:30 AM77 °FClear.1 mph44%29.77 "HgN/A
1:00 AM73 °FClear.3 mph53%29.77 "HgN/A
Weather by CustomWeather, © 2015

See weather overviewHow to use our weather pages